Dewpoint
68 68 68 67 68 67 67 68 68 69 69 70 71 70 70 70 70 70 70 69 69 69
69 68 68 68 68 68 68 68 68 69 69 70 71 71 70 70 69 70 70 70 69 69
69 69 69 69 68 68 67 68 68 69 69 70 71 71 70 70 70 69 70 70 68 68
70 70 69 69 68 68 68 68 69 69 69 69 69 70 70 69 69 69 69 69 69 68
71 70 70 70 70 69 69 69 69 69 69 69 69 69 70 70 69 69 69 69 69 69
70 70 69 70 69 69 70 70 69 69 68 68 67 67 67 70 70 70 70 69 68 68
69 69 69 70 70 69 69 70 69 69 68 67 67 67 66 66 67 69 69 69 69 69
68 69 69 69 70 70 70 69 70 70 69 68 67 66 64 65 66 67 69 69 70 70
63 64 67 69 70 69 69 69 70 69 69 68 68 65 65 64 64 67 68 69 69 70
60 61 63 66 67 68 68 69 69 69 69 69 69 65 64 66 66 67 69 69 69 69
59 60 60 64 66 66 67 68 69 69 69 69 70 65 64 66 68 70 70 69 69 69
59 59 60 62 63 64 65 66 67 68 69 69 69 64 64 65 68 69 69 70 70 70
60 60 60 61 61 63 64 65 65 66 67 67 68 65 61 63 69 68 69 69 70 65
61 61 61 61 61 62 63 64 65 64 64 65 66 66 60 59 67 68 67 66 66 67
Lifted_Index
-2 -2 -2 -2 -2 -2 -1 -1 -1 -1 -2 -3 -3 -4 -4 -4 -4 -4 -4 -4 -3 -3
-3 -2 -2 -2 -2 -2 -2 -1 -1 -1 -2 -3 -3 -4 -4 -4 -4 -4 -4 -4 -4 -3
-3 -3 -2 -2 -3 -2 -2 -2 -2 -2 -2 -3 -3 -4 -4 -4 -3 -3 -4 -4 -4 -4
-4 -4 -3 -3 -3 -3 -2 -2 -2 -2 -2 -3 -3 -3 -4 -4 -3 -3 -3 -4 -4 -4
-4 -4 -4 -4 -4 -3 -3 -3 -3 -2 -2 -3 -3 -3 -3 -3 -4 -4 -4 -3 -3 -3
-4 -4 -4 -4 -4 -4 -3 -3 -3 -3 -3 -3 -3 -2 -3 -3 -4 -4 -4 -4 -3 -3
-3 -3 -4 -4 -4 -4 -3 -3 -3 -3 -3 -3 -3 -2 -2 -3 -3 -3 -4 -4 -4 -3
-1 -1 -2 -3 -3 -4 -3 -3 -3 -3 -3 -3 -3 -3 -3 -3 -3 -3 -3 -4 -4 -4
3 2 1 -1 -2 -3 -4 -4 -4 -3 -3 -3 -3 -3 -3 -3 -3 -3 -3 -4 -4 -4
5 5 3 2 -1 -2 -3 -4 -4 -4 -4 -4 -4 -4 -4 -4 -3 -3 -3 -4 -4 -4
5 5 4 3 1 -1 -2 -3 -3 -4 -4 -4 -4 -4 -4 -4 -4 -4 -4 -4 -4 -4
5 5 4 3 2 1 -1 -2 -2 -3 -3 -4 -4 -4 -4 -5 -4 -4 -4 -4 -4 -4
5 4 4 3 2 1 0 -1 -1 -2 -2 -2 -3 -4 -4 -5 -5 -4 -4 -4 -4 -4
4 4 3 2 2 1 0 -1 -1 -1 -1 -1 -2 -3 -4 -5 -5 -4 -4 -4 -4 -4